User: anonymous   Login
Location: Bavegemberg
(50.9500°N, 3.8833°E)
Time: 06:51:31
(UTC+00:00)
Language:

Meteor 1-4 Rocket - Orbit

View from above orbital plane
View from above orbital plane
View from above satellite
View from above satellite

Ground track
Ground track

The orbit data is extracted from the following two-line orbital elements,

1 04394U 70037B   24202.90594402  .00085248  00000-0  68312-3 0  9990
2 04394  81.2252 182.4652 0018009 179.4479 180.6802 15.70520088962524
Epoch (UTC): 20 July 2024 21:44:33
Eccentricity: 0.0018009
inclination: 81.2252°
perigee height: 345 km
apogee height: 369 km
right ascension of ascending node: 182.4652°
argument of perigee: 179.4479°
revolutions per day: 15.70520088
mean anomaly at epoch: 180.6802°
orbit number at epoch: 96252

The dashed part of the orbit path shows where the satellite is in the earth's shadow,  

DLR